Location: Unnamed
(33.0780°N, 97.0417°W)
Time: 12:31:27
(UTC-06:00)

X-37B - Visible Passes

Search period start: 30 November 2023 00:00
Search period end: 10 December 2023 00:00
Orbit: 277 x 277 km, 45.0° (Epoch: 01 November)

Date Brightness Start Highest point End Pass type
(mag) Time Alt. Az. Time Alt. Az. Time Alt. Az.
30 Nov 2.5 18:33:06 10° NW 18:34:26 13° NNW 18:34:58 13° N visible
08 Dec 2.8 18:40:32 10° NNW 18:40:36 10° NNW 18:40:36 10° NNW visible
09 Dec 2.2 18:40:46 10° NNW 18:41:38 16° NNW 18:41:38 16° NNW visible
